Location: Seven Kings
(51.5667°N, 0.1000°E)
Time: 14:44:39
(UTC+00:00)

SL-08 RB Rocket - Pass Details

Date: 29 October 2020
Orbit: 648 x 683 km, 97.8° (Epoch: 28 November)

Event Time Altitude Azimuth Distance (km) Brightness Sun altitude
Exits shadow 18:26:08 30° 62° (ENE) 1,185 4.5 -17.4°
Drops below altitude 10° 18:29:58 10° 4° (N) 2,080 6.2 -18.0°
Sets 18:32:25 0° 354° (N) 3,002 7.2 -18.4°
